| time (UTC) | temp F | wind direction | speed MPH | gust MPH | rain 1hr in | rain 24hr in | rain mn in | humidity % | barometer mb |
| 20260506225051 | 48 | 17 | 2.0 | 3.0 | 0.00 | 0.00 | 0.00 | 89 | 1012.2 |
| 20260506223548 | 48 | 22 | 3.0 | 5.0 | 0.00 | 0.00 | 0.00 | 89 | 1012.1 |
| 20260506222054 | 49 | 17 | 3.0 | 5.0 | 0.00 | 0.00 | 0.00 | 88 | 1012.1 |
| 20260506220548 | 49 | 5 | 2.0 | 3.0 | 0.00 | 0.00 | 0.00 | 88 | 1012.1 |
| 20260506215051 | 49 | 355 | 1.0 | 3.0 | 0.00 | 0.00 | 0.00 | 87 | 1012.1 |
| 20260506213549 | 49 | 341 | 3.0 | 6.0 | 0.00 | 0.00 | 0.00 | 87 | 1012.2 |
| 20260506210551 | 50 | 332 | 1.0 | 2.0 | 0.00 | 0.00 | 0.00 | 86 | 1012.3 |
| 20260506205051 | 51 | 335 | 2.0 | 5.0 | 0.00 | 0.00 | 0.00 | 85 | 1012.3 |
| 20260506203547 | 52 | 333 | 3.0 | 3.0 | 0.00 | 0.00 | 0.00 | 84 | 1012.1 |
| 20260506202234 | 52 | 328 | 5.0 | 6.0 | 0.00 | 0.00 | 0.00 | 84 | 1011.9 |
| 20260506202049 | 52 | 328 | 5.0 | 6.0 | 0.00 | 0.00 | 0.00 | 84 | 1011.9 |
| 20260506200551 | 52 | 321 | 3.0 | 3.0 | 0.00 | 0.00 | 0.00 | 83 | 1011.8 |
| 20260506193550 | 53 | 324 | 2.0 | 3.0 | 0.00 | 0.00 | 0.00 | 80 | 1011.6 |
| 20260506192233 | 54 | 334 | 3.0 | 8.0 | 0.00 | 0.00 | 0.00 | 78 | 1011.5 |
| 20260506192050 | 54 | 334 | 3.0 | 8.0 | 0.00 | 0.00 | 0.00 | 78 | 1011.5 |
| 20260506190552 | 55 | 336 | 2.0 | 3.0 | 0.00 | 0.00 | 0.00 | 77 | 1011.6 |
| 20260506183937 | 57 | 338 | 6.0 | 10.0 | 0.00 | 0.00 | 0.00 | 75 | 1011.5 |
| 20260506183550 | 57 | 338 | 6.0 | 10.0 | 0.00 | 0.00 | 0.00 | 75 | 1011.5 |
| 20260506180550 | 59 | 1 | 5.0 | 7.0 | 0.00 | 0.00 | 0.00 | 72 | 1011.4 |
| 20260506175132 | 60 | 344 | 6.0 | 9.0 | 0.00 | 0.00 | 0.00 | 72 | 1011.4 |
| 20260506175050 | 60 | 344 | 6.0 | 9.0 | 0.00 | 0.00 | 0.00 | 72 | 1011.4 |
| 20260506173549 | 60 | 352 | 9.0 | 14.0 | 0.00 | 0.00 | 0.00 | 73 | 1011.4 |
| 20260506172235 | 61 | 7 | 8.0 | 9.0 | 0.00 | 0.00 | 0.00 | 73 | 1011.4 |
| 20260506172052 | 61 | 7 | 8.0 | 9.0 | 0.00 | 0.00 | 0.00 | 73 | 1011.4 |
| 20260506170549 | 60 | 355 | 5.0 | 8.0 | 0.00 | 0.00 | 0.00 | 75 | 1011.5 |
| 20260506165051 | 60 | 336 | 10.0 | 14.0 | 0.00 | 0.00 | 0.00 | 75 | 1011.6 |
| 20260506163936 | 61 | 5 | 2.0 | 3.0 | 0.00 | 0.00 | 0.00 | 70 | 1011.5 |
| 20260506163550 | 61 | 5 | 2.0 | 3.0 | 0.00 | 0.00 | 0.00 | 70 | 1011.5 |
| 20260506160550 | 65 | 219 | 9.0 | 13.0 | 0.00 | 0.00 | 0.00 | 60 | 1011.3 |
| 20260506155129 | 64 | 352 | 2.0 | 3.0 | 0.00 | 0.00 | 0.00 | 59 | 1011.4 |
| 20260506155050 | 64 | 352 | 2.0 | 3.0 | 0.00 | 0.00 | 0.00 | 59 | 1011.4 |
| 20260506153549 | 62 | 0 | 2.0 | 3.0 | 0.00 | 0.00 | 0.00 | 62 | 1011.6 |
| 20260506150550 | 64 | 336 | 6.0 | 9.0 | 0.00 | 0.00 | 0.00 | 62 | 1011.9 |
| 20260506143937 | 63 | 257 | 2.0 | 3.0 | 0.00 | 0.00 | 0.00 | 59 | 1012.3 |
| 20260506143549 | 63 | 257 | 2.0 | 3.0 | 0.00 | 0.00 | 0.00 | 59 | 1012.3 |
| 20260506140548 | 60 | 319 | 3.0 | 3.0 | 0.00 | 0.00 | 0.00 | 69 | 1012.8 |
| 20260506133551 | 61 | 287 | 3.0 | 7.0 | 0.00 | 0.00 | 0.00 | 67 | 1013.3 |
| 20260506123740 | 62 | 298 | 6.0 | 10.0 | 0.00 | 0.01 | 0.00 | 68 | 1013.8 |
| 20260506123550 | 62 | 298 | 6.0 | 10.0 | 0.00 | 0.01 | 0.00 | 68 | 1013.8 |
| 20260506122239 | 59 | 338 | 2.0 | 5.0 | 0.00 | 0.01 | 0.00 | 73 | 1014.1 |
| 20260506122048 | 59 | 338 | 2.0 | 5.0 | 0.00 | 0.01 | 0.00 | 73 | 1014.1 |
| 20260506120549 | 58 | 319 | 2.0 | 3.0 | 0.00 | 0.01 | 0.00 | 71 | 1014.3 |
| 20260506112121 | 0 | 33 | 2.0 | 0.0 | 0.00 | 0.00 | 0.00 | ||
| 20260506112048 | 59 | 33 | 2.0 | 7.0 | 0.00 | 0.02 | 0.00 | 74 | 1014.7 |
| 20260506110551 | 56 | 173 | 0.0 | 0.0 | 0.00 | 0.02 | 0.00 | 81 | 1015.0 |
| 20260506103737 | 54 | 225 | 2.0 | 3.0 | 0.00 | 0.02 | 0.00 | 82 | 1015.1 |
| 20260506103549 | 54 | 225 | 2.0 | 3.0 | 0.00 | 0.02 | 0.00 | 82 | 1015.1 |
| 20260506102228 | 53 | 218 | 1.0 | 2.0 | 0.00 | 0.02 | 0.00 | 85 | 1015.2 |
| 20260506102050 | 53 | 218 | 1.0 | 2.0 | 0.00 | 0.02 | 0.00 | 85 | 1015.2 |
| 20260506100550 | 53 | 250 | 2.0 | 5.0 | 0.00 | 0.02 | 0.00 | 83 | 1015.2 |
| 20260506092051 | 52 | 163 | 5.0 | 7.0 | 0.00 | 0.02 | 0.00 | 86 | 1015.2 |
| 20260506090549 | 52 | 213 | 3.0 | 3.0 | 0.00 | 0.02 | 0.00 | 90 | 1015.2 |
| 20260506083550 | 51 | 179 | 3.0 | 3.0 | 0.00 | 0.02 | 0.00 | 93 | 1015.1 |
| 20260506082057 | 49 | 217 | 2.0 | 3.0 | 0.00 | 0.02 | 0.00 | 93 | 1015.2 |
| 20260506070550 | 47 | 30 | 1.0 | 3.0 | 0.00 | 0.02 | 0.00 | 96 | 1015.4 |
| 20260506060548 | 45 | 348 | 3.0 | 5.0 | 0.00 | 0.02 | 0.00 | 98 | 1015.2 |
| 20260506050549 | 44 | 4 | 2.0 | 3.0 | 0.00 | 0.02 | 0.00 | 98 | 1014.9 |
| 20260506045049 | 44 | 347 | 5.0 | 8.0 | 0.00 | 0.02 | 0.00 | 97 | 1015.1 |
| 20260506043933 | 44 | 35 | 2.0 | 3.0 | 0.00 | 0.02 | 0.00 | 97 | 1015.0 |
| 20260506043549 | 44 | 35 | 2.0 | 3.0 | 0.00 | 0.02 | 0.00 | 97 | 1015.0 |
| 20260506040549 | 46 | 352 | 1.0 | 2.0 | 0.00 | 0.02 | 0.00 | 98 | 1015.0 |
| 20260506033650 | 42 | 0 | 2.0 | 5.0 | 0.00 | 0.02 | 0.00 | 97 | 1015.1 |
| 20260506033548 | 42 | 0 | 2.0 | 5.0 | 0.00 | 0.02 | 0.00 | 97 | 1015.1 |
| 20260506030549 | 44 | 69 | 5.0 | 3.0 | 0.00 | 0.02 | 0.00 | 96 | 1015.3 |
| 20260506023938 | 44 | 16 | 5.0 | 5.0 | 0.00 | 0.02 | 0.00 | 96 | 1015.3 |
| 20260506023549 | 44 | 16 | 5.0 | 5.0 | 0.00 | 0.02 | 0.00 | 96 | 1015.3 |
| 20260506020701 | 44 | 355 | 3.0 | 5.0 | 0.00 | 0.02 | 0.00 | 96 | 1015.5 |
| 20260506020550 | 44 | 355 | 3.0 | 5.0 | 0.00 | 0.02 | 0.00 | 96 | 1015.5 |
| 20260506013941 | 44 | 327 | 2.0 | 3.0 | 0.00 | 0.02 | 0.00 | 94 | 1015.8 |
| 20260506013552 | 44 | 327 | 2.0 | 3.0 | 0.00 | 0.02 | 0.00 | 94 | 1015.8 |
| 20260506003937 | 47 | 5 | 2.0 | 3.0 | 0.00 | 0.02 | 0.00 | 94 | 1016.1 |
| 20260506003549 | 47 | 5 | 2.0 | 3.0 | 0.00 | 0.02 | 0.00 | 94 | 1016.1 |
| 20260506000549 | 48 | 20 | 2.0 | 3.0 | 0.00 | 0.02 | 0.00 | 94 | 1016.2 |
| 20260505233823 | 48 | 4 | 3.0 | 5.0 | 0.00 | 0.02 | 0.00 | 94 | 1016.3 |
| 20260505233549 | 48 | 4 | 3.0 | 5.0 | 0.00 | 0.02 | 0.00 | 94 | 1016.3 |
| 20260505230548 | 48 | 352 | 2.0 | 3.0 | 0.00 | 0.02 | 0.00 | 94 | 1016.4 |